Location: Ottawa
(45.4167°N, 75.7000°W)
Time: 18:02:21
(UTC-05:00)

Envisat - Pass Details

Date: 15 October 2017
Orbit: 764 x 766 km, 98.2° (Epoch: 11 December)

Event Time Altitude Azimuth Distance (km) Brightness Sun altitude
Exits shadow 19:42:59 25° 81° (E) 1,518 3.9 -15.9°
Maximum altitude 19:43:53 26° 64° (ENE) 1,470 4.0 -16.0°
Drops below altitude 10° 19:48:03 10° 9° (N) 2,316 5.4 -16.8°
Sets 19:50:41 0° 357° (N) 3,247 6.3 -17.2°
